Zurück zum Katalog

ARIANE 44LP DEB

LostGTO
NORAD 39704·DEBRIS·🇫🇷 France

Gestartet Sep 10, 1992 von Guiana Space Centre

Loading…

TLE

VeraltetSource: Space-Track

Epoche: Jun 9, 2024, 12:45 UTC

1 39704U 92060F   24161.53173738  .00000021  00000-0  86343-2 0  9990
2 39704   8.7063  62.5242 7149265 189.0221 142.5984  2.10937060 78362

Verfolge ARIANE 44LP DEB in Echtzeit mit AllMySat

Download on the App Store